Location: Les Thiberg�res
(47.8554°N, 1.0978°W)
Time: 09:44:26
(UTC+00:00)

Cosmos 1954 Rocket - Pass Details

Date: 17 February 2020
Orbit: 753 x 781 km, 74.0° (Epoch: 09 April)

Event Time Altitude Azimuth Distance (km) Brightness Sun altitude
Rises 06:24:06 0° 203° (SSW) 3,249 7.1 -8.0°
Reaches altitude 10° 06:26:28 10° 204° (SSW) 2,327 6.4 -7.6°
Maximum altitude 06:31:47 82° 292° (WNW) 795 4.0 -6.8°
Drops below altitude 10° 06:37:08 10° 21° (NNE) 2,345 6.7 -5.9°
Sets 06:39:32 0° 23° (NNE) 3,276 7.4 -5.5°
